User: anonymous   Login
Location: Jetmore
(38.0845°N, 99.8935°W)
Time: 08:09:08
(UTC+00:00)
Language:

CZ-3 R/B - Orbit

View from above orbital plane
View from above orbital plane
View from above satellite
View from above satellite

Ground track
Ground track

The orbit data is extracted from the following two-line orbital elements,

1 29517U 06048B   21018.82861953  .00000467  00000-0  13968-3 0  9993
2 29517  28.3398 257.9900 4215816   7.4040 357.2780  6.87604622257628
Epoch (UTC): 18 January 2021 19:53:12
Eccentricity: 0.4215816
inclination: 28.3398°
perigee height: 379 km
apogee height: 10228 km
right ascension of ascending node: 257.9900°
argument of perigee: 7.4040°
revolutions per day: 6.87604622
mean anomaly at epoch: 357.2780°
orbit number at epoch: 25762

The dashed part of the orbit path shows where the satellite is in the earth's shadow,  

DLR